Tracking 30986 objects as of 9-Jul-2025
HD Live streaming from Space Station
objects crossing your sky now

NOAA 17 DEB

Track NOAA 17 DEB now!
10-day predictions


NORAD ID: 48705
Int'l Code: 2002-032AP
Perigee: 784.8 km
Apogee: 797.6 km
Inclination: 98.8 °
Period: 100.5 minutes
Semi major axis: 7162 km
RCS: Unknown
Launch date: June 24, 2002
Source: United States (US)
Launch site: AIR FORCE WESTERN TEST RANGE (AFWTR)

Note: This is SATELLITE DEBRIS
Your satellite tracking list
Your tracking list is empty




NASA's NSSDC Master Catalog

Two Line Element Set (TLE):
1 48705U 02032AN  25189.86787053  .00000983  00000-0  38101-3 0  9996
2 48705  98.7794 150.1880 0008938 248.1469 111.8764 14.32287375225363
Source of the keplerian elements: AFSPC